GFSCGP_prec_pwat_057.txt.gz
Precipitable_Water
0.22 0.17 0.14 0.16 0.18 0.19 0.17 0.15 0.13 0.15 0.19 0.17 0.15 0.15 0.16 0.18 0.19 0.18 0.19 0.20 0.20 0.22 0.28 0.32 0.34 0.35 0.42 0.49 0.54 0.61 0.65 0.69 0.73 0.71 0.67 0.67 0.65 0.74 0.83 0.96 1.02 1.06 1.08 1.12
0.21 0.16 0.20 0.24 0.23 0.20 0.17 0.14 0.13 0.16 0.21 0.18 0.16 0.14 0.18 0.17 0.16 0.17 0.17 0.18 0.19 0.21 0.23 0.29 0.33 0.36 0.40 0.44 0.49 0.53 0.55 0.60 0.63 0.66 0.67 0.67 0.66 0.70 0.76 0.82 0.93 0.98 1.01 1.04
0.16 0.19 0.23 0.21 0.19 0.16 0.16 0.15 0.14 0.15 0.20 0.19 0.18 0.12 0.12 0.15 0.17 0.17 0.17 0.18 0.19 0.20 0.22 0.25 0.29 0.32 0.36 0.41 0.47 0.50 0.52 0.56 0.61 0.65 0.68 0.68 0.70 0.71 0.69 0.71 0.75 0.86 0.95 0.99
0.20 0.24 0.20 0.18 0.17 0.18 0.13 0.20 0.18 0.17 0.16 0.11 0.21 0.10 0.11 0.13 0.14 0.16 0.15 0.17 0.18 0.21 0.23 0.25 0.27 0.32 0.36 0.39 0.45 0.51 0.55 0.57 0.60 0.64 0.63 0.61 0.59 0.56 0.60 0.65 0.71 0.78 0.92 0.97
0.18 0.19 0.18 0.17 0.17 0.20 0.17 0.22 0.20 0.19 0.17 0.17 0.15 0.14 0.12 0.14 0.13 0.14 0.14 0.16 0.19 0.22 0.25 0.27 0.29 0.32 0.38 0.41 0.45 0.48 0.52 0.56 0.60 0.63 0.63 0.62 0.59 0.60 0.66 0.70 0.69 0.76 0.87 0.92
0.24 0.30 0.25 0.23 0.25 0.24 0.26 0.22 0.21 0.20 0.17 0.10 0.13 0.13 0.10 0.10 0.12 0.13 0.14 0.17 0.20 0.23 0.26 0.29 0.32 0.35 0.37 0.42 0.45 0.48 0.49 0.51 0.56 0.60 0.63 0.62 0.60 0.61 0.65 0.68 0.68 0.73 0.82 0.88
0.23 0.23 0.27 0.28 0.22 0.26 0.24 0.19 0.12 0.12 0.13 0.08 0.15 0.13 0.11 0.14 0.14 0.15 0.15 0.16 0.19 0.24 0.23 0.26 0.30 0.34 0.37 0.41 0.46 0.49 0.51 0.51 0.56 0.59 0.63 0.67 0.68 0.69 0.70 0.71 0.71 0.71 0.77 0.84
0.19 0.17 0.24 0.27 0.21 0.19 0.21 0.19 0.13 0.09 0.10 0.10 0.19 0.10 0.10 0.16 0.18 0.18 0.18 0.19 0.20 0.23 0.27 0.30 0.33 0.36 0.40 0.44 0.48 0.50 0.52 0.55 0.60 0.62 0.65 0.70 0.71 0.71 0.73 0.73 0.75 0.74 0.76 0.83
0.21 0.21 0.31 0.30 0.30 0.26 0.24 0.19 0.23 0.18 0.18 0.14 0.12 0.11 0.14 0.17 0.17 0.18 0.18 0.21 0.23 0.27 0.30 0.32 0.36 0.39 0.43 0.47 0.50 0.54 0.56 0.58 0.59 0.61 0.65 0.69 0.71 0.73 0.74 0.77 0.79 0.80 0.81 0.84
0.32 0.22 0.30 0.32 0.34 0.32 0.28 0.29 0.20 0.21 0.13 0.12 0.11 0.11 0.11 0.14 0.17 0.19 0.21 0.22 0.28 0.32 0.34 0.37 0.40 0.43 0.48 0.51 0.54 0.57 0.59 0.60 0.63 0.65 0.67 0.68 0.69 0.72 0.75 0.76 0.75 0.77 0.80 0.82
0.41 0.33 0.30 0.33 0.27 0.24 0.26 0.24 0.25 0.25 0.20 0.14 0.12 0.11 0.16 0.17 0.21 0.22 0.28 0.31 0.33 0.37 0.40 0.42 0.44 0.48 0.51 0.54 0.57 0.58 0.60 0.62 0.64 0.67 0.69 0.69 0.70 0.73 0.74 0.73 0.74 0.75 0.78 0.80
0.48 0.40 0.30 0.31 0.37 0.37 0.32 0.26 0.26 0.20 0.18 0.22 0.18 0.13 0.21 0.22 0.25 0.26 0.29 0.32 0.37 0.42 0.45 0.47 0.50 0.52 0.53 0.55 0.57 0.58 0.59 0.61 0.63 0.66 0.68 0.68 0.70 0.72 0.72 0.72 0.72 0.74 0.74 0.77
0.56 0.45 0.34 0.34 0.38 0.40 0.35 0.34 0.33 0.30 0.28 0.23 0.18 0.14 0.22 0.24 0.27 0.29 0.29 0.33 0.38 0.41 0.45 0.49 0.52 0.53 0.54 0.55 0.57 0.58 0.59 0.60 0.63 0.66 0.67 0.68 0.69 0.70 0.70 0.71 0.73 0.73 0.72 0.74
0.64 0.51 0.44 0.34 0.38 0.44 0.38 0.38 0.39 0.38 0.32 0.27 0.27 0.23 0.23 0.26 0.30 0.32 0.35 0.38 0.42 0.45 0.47 0.50 0.52 0.52 0.54 0.55 0.56 0.57 0.58 0.62 0.64 0.66 0.66 0.66 0.68 0.69 0.71 0.72 0.72 0.72 0.72 0.73
0.57 0.42 0.47 0.44 0.46 0.46 0.43 0.42 0.43 0.40 0.40 0.36 0.33 0.36 0.32 0.35 0.39 0.42 0.45 0.45 0.44 0.46 0.49 0.51 0.53 0.56 0.57 0.58 0.59 0.59 0.59 0.61 0.63 0.64 0.64 0.66 0.68 0.70 0.71 0.70 0.71 0.71 0.72 0.74
0.54 0.40 0.44 0.37 0.43 0.44 0.41 0.42 0.40 0.38 0.38 0.40 0.36 0.35 0.38 0.41 0.44 0.45 0.47 0.46 0.46 0.48 0.47 0.47 0.49 0.53 0.58 0.59 0.58 0.58 0.60 0.61 0.63 0.63 0.64 0.67 0.66 0.68 0.67 0.68 0.68 0.69 0.71 0.74
0.44 0.39 0.36 0.30 0.38 0.39 0.34 0.35 0.36 0.39 0.40 0.40 0.35 0.35 0.42 0.40 0.40 0.41 0.41 0.46 0.48 0.48 0.48 0.46 0.48 0.53 0.56 0.56 0.56 0.57 0.59 0.61 0.61 0.63 0.65 0.65 0.64 0.63 0.64 0.66 0.65 0.66 0.68 0.72
0.37 0.36 0.36 0.28 0.34 0.23 0.32 0.42 0.43 0.42 0.43 0.44 0.46 0.43 0.41 0.42 0.45 0.43 0.44 0.49 0.45 0.46 0.46 0.47 0.50 0.54 0.57 0.58 0.58 0.59 0.60 0.60 0.60 0.61 0.63 0.64 0.63 0.62 0.63 0.64 0.64 0.65 0.67 0.68
0.28 0.25 0.22 0.20 0.21 0.27 0.30 0.32 0.37 0.39 0.36 0.46 0.47 0.48 0.45 0.45 0.49 0.40 0.46 0.49 0.46 0.49 0.50 0.53 0.55 0.56 0.56 0.57 0.59 0.59 0.59 0.60 0.61 0.61 0.62 0.63 0.63 0.63 0.63 0.63 0.64 0.66 0.66 0.67
0.25 0.26 0.21 0.16 0.14 0.11 0.16 0.23 0.35 0.40 0.31 0.39 0.44 0.43 0.43 0.45 0.38 0.36 0.53 0.52 0.49 0.50 0.52 0.54 0.55 0.55 0.56 0.57 0.60 0.60 0.60 0.61 0.61 0.62 0.63 0.64 0.65 0.64 0.63 0.64 0.64 0.65 0.65 0.65
0.18 0.23 0.20 0.19 0.17 0.19 0.21 0.22 0.33 0.25 0.26 0.41 0.42 0.45 0.44 0.39 0.45 0.49 0.52 0.50 0.51 0.52 0.52 0.56 0.58 0.57 0.57 0.59 0.60 0.59 0.61 0.60 0.62 0.64 0.64 0.64 0.65 0.64 0.64 0.64 0.63 0.63 0.63 0.64
0.17 0.19 0.21 0.23 0.19 0.16 0.29 0.25 0.21 0.31 0.40 0.37 0.38 0.39 0.41 0.44 0.45 0.48 0.48 0.48 0.47 0.50 0.54 0.57 0.57 0.57 0.59 0.61 0.60 0.58 0.59 0.62 0.64 0.64 0.62 0.63 0.63 0.63 0.63 0.62 0.62 0.62 0.62 0.62
0.12 0.14 0.17 0.23 0.25 0.41 0.43 0.42 0.47 0.48 0.46 0.43 0.38 0.38 0.41 0.39 0.39 0.44 0.45 0.48 0.49 0.51 0.51 0.55 0.57 0.56 0.57 0.58 0.59 0.57 0.58 0.60 0.59 0.60 0.59 0.58 0.58 0.58 0.59 0.59 0.58 0.59 0.60 0.60
0.16 0.19 0.18 0.19 0.18 0.21 0.29 0.38 0.43 0.44 0.41 0.40 0.38 0.37 0.40 0.39 0.39 0.40 0.46 0.56 0.54 0.56 0.56 0.56 0.54 0.53 0.54 0.57 0.57 0.57 0.58 0.58 0.57 0.56 0.56 0.57 0.57 0.58 0.59 0.60 0.61 0.61 0.61 0.61
0.21 0.24 0.18 0.20 0.19 0.23 0.24 0.25 0.29 0.32 0.33 0.34 0.36 0.37 0.38 0.37 0.32 0.38 0.44 0.48 0.53 0.53 0.61 0.63 0.62 0.59 0.57 0.59 0.61 0.64 0.64 0.61 0.57 0.56 0.56 0.56 0.55 0.55 0.55 0.55 0.55 0.55 0.57 0.56
0.16 0.18 0.18 0.17 0.23 0.25 0.22 0.25 0.28 0.29 0.32 0.37 0.36 0.31 0.32 0.35 0.36 0.41 0.43 0.48 0.51 0.54 0.56 0.57 0.55 0.58 0.61 0.64 0.63 0.64 0.64 0.63 0.58 0.53 0.51 0.48 0.46 0.45 0.44 0.44 0.44 0.49 0.49 0.50

GFSCGP_prec_pwat_060.txt.gz
Precipitable_Water
0.22 0.16 0.12 0.14 0.15 0.15 0.18 0.17 0.16 0.18 0.22 0.18 0.14 0.13 0.15 0.17 0.18 0.18 0.18 0.18 0.19 0.19 0.24 0.27 0.29 0.34 0.40 0.50 0.56 0.66 0.73 0.78 0.80 0.80 0.79 0.82 0.80 0.87 0.92 0.96 1.03 1.09 1.18 1.20
0.20 0.13 0.17 0.20 0.21 0.18 0.17 0.15 0.14 0.16 0.21 0.19 0.15 0.12 0.15 0.16 0.14 0.15 0.15 0.16 0.17 0.19 0.22 0.24 0.28 0.31 0.35 0.40 0.50 0.60 0.68 0.72 0.73 0.75 0.77 0.80 0.79 0.80 0.84 0.92 0.94 0.99 1.06 1.14
0.17 0.19 0.21 0.20 0.20 0.19 0.18 0.14 0.14 0.15 0.21 0.20 0.16 0.12 0.12 0.15 0.17 0.18 0.18 0.17 0.17 0.18 0.20 0.24 0.27 0.30 0.33 0.36 0.43 0.53 0.61 0.68 0.71 0.73 0.75 0.76 0.78 0.76 0.72 0.74 0.78 0.89 0.98 1.02
0.20 0.24 0.21 0.19 0.18 0.19 0.14 0.19 0.18 0.17 0.15 0.10 0.19 0.09 0.11 0.12 0.13 0.15 0.15 0.17 0.18 0.19 0.21 0.22 0.25 0.31 0.32 0.34 0.41 0.47 0.53 0.59 0.64 0.68 0.66 0.64 0.60 0.57 0.61 0.66 0.73 0.75 0.88 0.94
0.17 0.19 0.18 0.17 0.17 0.20 0.17 0.22 0.20 0.19 0.17 0.16 0.13 0.12 0.10 0.13 0.12 0.14 0.14 0.17 0.19 0.22 0.23 0.24 0.26 0.28 0.33 0.37 0.39 0.44 0.49 0.52 0.56 0.59 0.63 0.63 0.61 0.62 0.65 0.68 0.69 0.72 0.76 0.85
0.23 0.29 0.24 0.21 0.23 0.23 0.26 0.22 0.20 0.20 0.17 0.10 0.12 0.10 0.09 0.10 0.11 0.14 0.17 0.17 0.20 0.22 0.24 0.27 0.29 0.32 0.34 0.38 0.40 0.44 0.45 0.49 0.55 0.58 0.61 0.61 0.60 0.62 0.62 0.63 0.64 0.68 0.72 0.77
0.21 0.21 0.26 0.28 0.21 0.26 0.25 0.19 0.11 0.11 0.13 0.08 0.14 0.11 0.12 0.14 0.14 0.15 0.15 0.16 0.21 0.23 0.23 0.24 0.26 0.28 0.30 0.34 0.40 0.44 0.47 0.48 0.54 0.57 0.60 0.63 0.64 0.65 0.63 0.65 0.68 0.70 0.71 0.73
0.16 0.15 0.23 0.26 0.22 0.18 0.20 0.18 0.11 0.08 0.09 0.11 0.18 0.10 0.12 0.17 0.17 0.17 0.18 0.18 0.20 0.22 0.25 0.24 0.28 0.32 0.36 0.39 0.42 0.45 0.48 0.50 0.54 0.58 0.61 0.65 0.68 0.70 0.70 0.71 0.73 0.74 0.75 0.76
0.21 0.20 0.30 0.30 0.29 0.26 0.22 0.17 0.22 0.16 0.16 0.13 0.13 0.14 0.17 0.18 0.16 0.17 0.18 0.20 0.20 0.25 0.29 0.31 0.36 0.38 0.40 0.41 0.44 0.48 0.51 0.53 0.56 0.59 0.62 0.65 0.69 0.72 0.72 0.74 0.77 0.79 0.81 0.81
0.32 0.23 0.31 0.33 0.34 0.31 0.27 0.29 0.19 0.20 0.12 0.10 0.10 0.11 0.11 0.15 0.17 0.18 0.21 0.23 0.26 0.30 0.32 0.34 0.37 0.41 0.43 0.46 0.50 0.54 0.56 0.55 0.58 0.61 0.63 0.65 0.68 0.72 0.74 0.76 0.75 0.77 0.81 0.83
0.43 0.35 0.30 0.33 0.28 0.24 0.26 0.24 0.25 0.24 0.20 0.13 0.10 0.11 0.17 0.18 0.22 0.23 0.27 0.32 0.34 0.35 0.35 0.37 0.41 0.44 0.46 0.50 0.53 0.55 0.57 0.58 0.59 0.62 0.64 0.65 0.67 0.70 0.73 0.74 0.76 0.77 0.80 0.82
0.49 0.43 0.32 0.31 0.38 0.38 0.33 0.26 0.27 0.20 0.18 0.21 0.18 0.12 0.21 0.23 0.25 0.27 0.29 0.32 0.35 0.36 0.41 0.44 0.45 0.47 0.50 0.54 0.56 0.56 0.57 0.57 0.59 0.62 0.63 0.65 0.67 0.69 0.70 0.73 0.76 0.79 0.78 0.81
0.54 0.43 0.33 0.33 0.39 0.42 0.35 0.34 0.33 0.31 0.28 0.21 0.18 0.13 0.22 0.26 0.28 0.30 0.31 0.34 0.37 0.40 0.43 0.47 0.49 0.50 0.52 0.55 0.56 0.56 0.58 0.58 0.61 0.63 0.63 0.64 0.65 0.67 0.69 0.72 0.75 0.77 0.77 0.78
0.63 0.51 0.41 0.32 0.39 0.44 0.37 0.39 0.39 0.37 0.30 0.24 0.26 0.22 0.24 0.28 0.30 0.32 0.34 0.38 0.41 0.44 0.47 0.49 0.51 0.53 0.56 0.56 0.56 0.57 0.58 0.62 0.63 0.64 0.63 0.63 0.65 0.68 0.69 0.73 0.75 0.75 0.76 0.74
0.55 0.40 0.46 0.46 0.47 0.49 0.47 0.47 0.46 0.42 0.38 0.34 0.30 0.33 0.27 0.35 0.38 0.42 0.45 0.47 0.49 0.49 0.52 0.52 0.52 0.52 0.55 0.56 0.56 0.57 0.59 0.61 0.63 0.61 0.62 0.62 0.65 0.68 0.69 0.71 0.73 0.75 0.74 0.72
0.56 0.40 0.43 0.36 0.42 0.45 0.41 0.44 0.43 0.43 0.40 0.41 0.38 0.37 0.39 0.43 0.45 0.44 0.44 0.49 0.48 0.50 0.50 0.50 0.53 0.54 0.54 0.54 0.53 0.54 0.56 0.58 0.59 0.59 0.59 0.62 0.63 0.66 0.67 0.69 0.70 0.71 0.69 0.68
0.47 0.41 0.38 0.28 0.39 0.39 0.35 0.35 0.41 0.39 0.42 0.41 0.35 0.35 0.41 0.40 0.42 0.43 0.48 0.51 0.47 0.48 0.49 0.50 0.52 0.51 0.53 0.54 0.56 0.55 0.57 0.58 0.57 0.57 0.58 0.61 0.64 0.64 0.66 0.68 0.69 0.67 0.66 0.67
0.31 0.30 0.32 0.25 0.33 0.21 0.27 0.35 0.39 0.40 0.41 0.45 0.47 0.47 0.43 0.45 0.45 0.46 0.54 0.51 0.48 0.52 0.53 0.53 0.54 0.53 0.54 0.56 0.56 0.57 0.56 0.56 0.56 0.56 0.58 0.61 0.62 0.63 0.65 0.66 0.66 0.66 0.67 0.66
0.30 0.28 0.24 0.20 0.21 0.26 0.26 0.24 0.28 0.29 0.29 0.38 0.37 0.39 0.41 0.46 0.48 0.42 0.53 0.54 0.54 0.56 0.57 0.56 0.55 0.53 0.54 0.53 0.54 0.54 0.54 0.55 0.55 0.55 0.58 0.60 0.62 0.63 0.63 0.63 0.64 0.65 0.66 0.66
0.20 0.22 0.19 0.16 0.14 0.10 0.09 0.10 0.16 0.22 0.17 0.28 0.32 0.35 0.37 0.41 0.34 0.38 0.51 0.55 0.54 0.57 0.58 0.53 0.54 0.52 0.50 0.52 0.55 0.54 0.54 0.55 0.55 0.57 0.58 0.61 0.62 0.62 0.62 0.63 0.64 0.64 0.65 0.65
0.15 0.18 0.16 0.16 0.15 0.19 0.18 0.18 0.25 0.16 0.15 0.32 0.35 0.38 0.39 0.35 0.38 0.41 0.46 0.47 0.52 0.53 0.54 0.55 0.52 0.49 0.50 0.55 0.56 0.54 0.55 0.55 0.57 0.60 0.61 0.62 0.62 0.61 0.63 0.64 0.65 0.65 0.64 0.64
0.09 0.11 0.12 0.15 0.14 0.12 0.20 0.21 0.21 0.32 0.37 0.38 0.37 0.35 0.35 0.37 0.37 0.40 0.40 0.43 0.44 0.44 0.47 0.51 0.48 0.49 0.51 0.53 0.55 0.54 0.53 0.56 0.58 0.59 0.59 0.59 0.60 0.61 0.61 0.60 0.60 0.59 0.59 0.59
0.10 0.11 0.13 0.17 0.19 0.32 0.33 0.30 0.39 0.43 0.41 0.43 0.41 0.38 0.37 0.38 0.36 0.39 0.37 0.35 0.35 0.37 0.39 0.43 0.46 0.48 0.51 0.52 0.52 0.50 0.53 0.56 0.57 0.57 0.58 0.58 0.58 0.58 0.56 0.55 0.54 0.54 0.56 0.56
0.17 0.18 0.16 0.14 0.14 0.17 0.23 0.30 0.33 0.36 0.35 0.36 0.36 0.37 0.38 0.37 0.39 0.36 0.35 0.34 0.36 0.37 0.37 0.40 0.40 0.42 0.48 0.53 0.55 0.51 0.54 0.57 0.57 0.55 0.58 0.57 0.55 0.55 0.56 0.57 0.57 0.57 0.56 0.56
0.17 0.20 0.16 0.18 0.16 0.20 0.20 0.22 0.22 0.23 0.26 0.26 0.27 0.29 0.34 0.38 0.34 0.34 0.34 0.35 0.34 0.35 0.38 0.39 0.37 0.41 0.47 0.52 0.55 0.59 0.59 0.58 0.58 0.59 0.58 0.58 0.57 0.56 0.57 0.57 0.57 0.56 0.57 0.55
0.14 0.14 0.14 0.13 0.18 0.22 0.21 0.23 0.24 0.23 0.24 0.26 0.24 0.25 0.26 0.30 0.33 0.31 0.35 0.39 0.37 0.34 0.36 0.36 0.39 0.43 0.48 0.51 0.54 0.61 0.63 0.62 0.61 0.57 0.56 0.55 0.55 0.53 0.51 0.50 0.47 0.49 0.49 0.48

GFSCGP_prec_pwat_063.txt.gz
Precipitable_Water
0.21 0.15 0.12 0.13 0.13 0.14 0.17 0.15 0.14 0.18 0.21 0.18 0.16 0.14 0.15 0.15 0.15 0.15 0.16 0.17 0.18 0.19 0.21 0.25 0.28 0.31 0.37 0.46 0.55 0.64 0.71 0.77 0.83 0.84 0.81 0.84 0.82 0.90 0.95 1.01 1.03 1.06 1.10 1.11
0.17 0.12 0.15 0.17 0.18 0.16 0.15 0.14 0.14 0.18 0.22 0.19 0.16 0.13 0.14 0.14 0.12 0.14 0.14 0.15 0.16 0.18 0.19 0.22 0.25 0.29 0.32 0.36 0.46 0.57 0.66 0.74 0.78 0.82 0.82 0.86 0.85 0.87 0.92 0.98 1.03 1.06 1.08 1.06
0.15 0.18 0.18 0.19 0.18 0.16 0.17 0.15 0.14 0.14 0.18 0.18 0.16 0.10 0.10 0.14 0.15 0.17 0.18 0.19 0.18 0.18 0.18 0.20 0.23 0.26 0.30 0.34 0.40 0.48 0.58 0.67 0.77 0.80 0.84 0.84 0.87 0.86 0.86 0.89 0.94 1.00 1.04 1.06
0.19 0.23 0.20 0.18 0.17 0.18 0.14 0.20 0.17 0.15 0.14 0.09 0.18 0.07 0.10 0.11 0.10 0.12 0.14 0.16 0.17 0.19 0.21 0.21 0.21 0.24 0.28 0.32 0.39 0.45 0.53 0.60 0.71 0.77 0.75 0.73 0.70 0.67 0.73 0.80 0.88 0.93 0.99 1.02
0.18 0.18 0.18 0.18 0.18 0.20 0.16 0.20 0.17 0.18 0.16 0.15 0.14 0.11 0.09 0.13 0.10 0.10 0.12 0.15 0.19 0.21 0.23 0.23 0.24 0.26 0.29 0.33 0.36 0.43 0.50 0.57 0.65 0.70 0.72 0.70 0.69 0.70 0.74 0.76 0.78 0.82 0.89 0.95
0.22 0.28 0.24 0.20 0.23 0.22 0.24 0.19 0.19 0.19 0.16 0.09 0.12 0.10 0.08 0.08 0.09 0.12 0.16 0.20 0.21 0.22 0.24 0.27 0.29 0.29 0.30 0.34 0.37 0.41 0.45 0.49 0.57 0.63 0.66 0.65 0.63 0.63 0.64 0.66 0.66 0.71 0.76 0.80
0.21 0.21 0.26 0.26 0.19 0.25 0.22 0.16 0.10 0.09 0.10 0.07 0.14 0.11 0.11 0.13 0.15 0.16 0.16 0.18 0.21 0.23 0.23 0.25 0.25 0.26 0.28 0.32 0.36 0.39 0.44 0.46 0.53 0.56 0.59 0.61 0.62 0.63 0.63 0.65 0.67 0.69 0.72 0.76
0.14 0.13 0.21 0.26 0.20 0.17 0.18 0.15 0.09 0.07 0.07 0.09 0.17 0.11 0.12 0.18 0.17 0.20 0.19 0.20 0.21 0.22 0.24 0.25 0.27 0.29 0.33 0.36 0.40 0.44 0.46 0.48 0.52 0.56 0.58 0.62 0.65 0.66 0.67 0.69 0.70 0.72 0.74 0.76
0.17 0.16 0.27 0.26 0.27 0.22 0.20 0.15 0.20 0.14 0.15 0.11 0.11 0.14 0.18 0.18 0.18 0.17 0.18 0.22 0.24 0.29 0.31 0.32 0.35 0.40 0.41 0.41 0.43 0.45 0.48 0.51 0.54 0.56 0.59 0.61 0.64 0.66 0.67 0.70 0.74 0.75 0.79 0.81
0.27 0.20 0.29 0.30 0.33 0.31 0.25 0.27 0.18 0.18 0.10 0.08 0.10 0.11 0.11 0.14 0.15 0.16 0.19 0.24 0.29 0.33 0.34 0.35 0.38 0.41 0.44 0.45 0.48 0.51 0.53 0.52 0.55 0.58 0.60 0.61 0.63 0.66 0.69 0.71 0.71 0.73 0.77 0.80
0.38 0.31 0.29 0.33 0.27 0.24 0.26 0.23 0.24 0.22 0.18 0.11 0.09 0.10 0.17 0.17 0.22 0.24 0.29 0.33 0.35 0.36 0.38 0.40 0.41 0.43 0.44 0.48 0.51 0.53 0.54 0.54 0.56 0.58 0.59 0.60 0.61 0.64 0.67 0.69 0.71 0.73 0.76 0.78
0.46 0.40 0.31 0.31 0.37 0.38 0.33 0.27 0.27 0.21 0.18 0.20 0.17 0.12 0.23 0.26 0.28 0.29 0.31 0.35 0.38 0.40 0.41 0.43 0.43 0.47 0.49 0.51 0.53 0.53 0.55 0.56 0.57 0.60 0.61 0.61 0.64 0.65 0.65 0.68 0.71 0.74 0.74 0.79
0.49 0.41 0.33 0.34 0.39 0.42 0.35 0.34 0.32 0.31 0.28 0.19 0.18 0.13 0.24 0.29 0.30 0.33 0.33 0.36 0.39 0.42 0.44 0.46 0.48 0.50 0.52 0.53 0.53 0.53 0.56 0.57 0.58 0.60 0.60 0.61 0.63 0.64 0.65 0.67 0.69 0.72 0.74 0.77
0.55 0.45 0.37 0.29 0.36 0.43 0.37 0.40 0.41 0.36 0.28 0.25 0.24 0.21 0.25 0.28 0.29 0.32 0.36 0.38 0.41 0.45 0.47 0.49 0.50 0.52 0.55 0.56 0.56 0.57 0.57 0.60 0.61 0.61 0.61 0.61 0.62 0.64 0.64 0.66 0.68 0.70 0.73 0.75
0.55 0.40 0.45 0.45 0.46 0.48 0.47 0.45 0.44 0.40 0.39 0.33 0.30 0.31 0.32 0.38 0.39 0.41 0.43 0.43 0.45 0.47 0.51 0.54 0.55 0.56 0.58 0.56 0.55 0.58 0.58 0.61 0.63 0.62 0.62 0.61 0.58 0.60 0.63 0.64 0.66 0.68 0.70 0.72
0.54 0.38 0.43 0.40 0.45 0.45 0.44 0.46 0.46 0.43 0.43 0.40 0.38 0.35 0.43 0.45 0.45 0.45 0.47 0.48 0.50 0.52 0.54 0.56 0.57 0.57 0.56 0.56 0.55 0.55 0.57 0.58 0.59 0.56 0.55 0.57 0.58 0.59 0.60 0.62 0.63 0.66 0.68 0.71
0.49 0.44 0.38 0.30 0.39 0.40 0.33 0.33 0.38 0.40 0.42 0.43 0.36 0.38 0.43 0.41 0.44 0.48 0.51 0.52 0.52 0.53 0.53 0.54 0.56 0.58 0.60 0.61 0.59 0.54 0.54 0.55 0.53 0.52 0.53 0.54 0.55 0.56 0.59 0.61 0.62 0.63 0.65 0.68
0.44 0.41 0.39 0.32 0.35 0.23 0.28 0.36 0.37 0.36 0.39 0.44 0.45 0.43 0.45 0.46 0.48 0.52 0.55 0.52 0.53 0.54 0.53 0.54 0.57 0.58 0.61 0.62 0.59 0.56 0.53 0.51 0.51 0.51 0.51 0.53 0.55 0.55 0.58 0.59 0.60 0.61 0.63 0.65
0.39 0.31 0.24 0.18 0.15 0.17 0.19 0.26 0.28 0.28 0.26 0.32 0.29 0.30 0.34 0.37 0.39 0.40 0.48 0.47 0.46 0.49 0.53 0.55 0.58 0.59 0.61 0.59 0.57 0.56 0.53 0.52 0.50 0.50 0.52 0.53 0.55 0.56 0.57 0.58 0.59 0.61 0.62 0.62
0.26 0.30 0.24 0.20 0.14 0.10 0.10 0.16 0.21 0.27 0.16 0.27 0.24 0.23 0.24 0.28 0.21 0.25 0.36 0.39 0.39 0.42 0.45 0.47 0.53 0.55 0.56 0.57 0.56 0.51 0.48 0.50 0.51 0.53 0.54 0.55 0.55 0.55 0.55 0.57 0.59 0.60 0.61 0.61
0.13 0.16 0.13 0.12 0.13 0.14 0.12 0.15 0.20 0.12 0.10 0.26 0.30 0.30 0.30 0.29 0.32 0.34 0.38 0.39 0.42 0.41 0.40 0.42 0.42 0.44 0.47 0.48 0.49 0.48 0.49 0.48 0.52 0.53 0.55 0.56 0.59 0.60 0.61 0.60 0.60 0.59 0.59 0.59
0.10 0.11 0.12 0.15 0.14 0.10 0.18 0.22 0.19 0.26 0.32 0.30 0.31 0.32 0.34 0.34 0.33 0.33 0.33 0.34 0.36 0.36 0.37 0.40 0.38 0.37 0.41 0.42 0.40 0.40 0.42 0.46 0.48 0.51 0.53 0.54 0.56 0.56 0.58 0.59 0.60 0.59 0.59 0.58
0.09 0.13 0.11 0.13 0.12 0.19 0.24 0.24 0.32 0.38 0.34 0.33 0.33 0.34 0.34 0.33 0.32 0.33 0.32 0.33 0.33 0.34 0.35 0.37 0.37 0.37 0.38 0.39 0.39 0.36 0.40 0.44 0.44 0.47 0.50 0.51 0.53 0.55 0.56 0.56 0.56 0.55 0.57 0.56
0.14 0.16 0.11 0.11 0.13 0.17 0.22 0.27 0.30 0.32 0.31 0.29 0.30 0.30 0.31 0.29 0.29 0.30 0.33 0.34 0.35 0.37 0.35 0.37 0.36 0.34 0.33 0.35 0.37 0.38 0.41 0.43 0.42 0.42 0.49 0.53 0.53 0.55 0.57 0.54 0.53 0.53 0.53 0.54
0.14 0.17 0.14 0.15 0.15 0.17 0.18 0.20 0.23 0.25 0.27 0.25 0.24 0.23 0.23 0.24 0.24 0.26 0.27 0.28 0.29 0.32 0.35 0.37 0.36 0.34 0.34 0.37 0.40 0.42 0.42 0.42 0.40 0.43 0.50 0.53 0.55 0.54 0.54 0.55 0.56 0.56 0.57 0.56
0.15 0.13 0.13 0.13 0.19 0.20 0.19 0.18 0.18 0.18 0.19 0.21 0.21 0.20 0.23 0.25 0.27 0.27 0.27 0.28 0.28 0.30 0.32 0.32 0.33 0.35 0.36 0.36 0.39 0.41 0.44 0.44 0.43 0.44 0.50 0.54 0.54 0.55 0.55 0.55 0.54 0.57 0.56 0.55

GFSCGP_prec_pwat_069.txt.gz
Precipitable_Water
0.21 0.14 0.11 0.13 0.14 0.12 0.12 0.12 0.11 0.14 0.19 0.16 0.14 0.14 0.14 0.17 0.16 0.15 0.14 0.14 0.14 0.16 0.17 0.21 0.24 0.29 0.38 0.48 0.54 0.59 0.69 0.78 0.86 0.87 0.84 0.88 0.88 0.97 1.02 1.05 1.09 1.10 1.13 1.17
0.18 0.12 0.15 0.16 0.16 0.14 0.15 0.13 0.13 0.16 0.20 0.19 0.16 0.14 0.15 0.15 0.14 0.13 0.11 0.12 0.14 0.16 0.17 0.18 0.20 0.24 0.27 0.32 0.41 0.51 0.56 0.65 0.73 0.82 0.85 0.90 0.92 0.98 1.02 1.06 1.08 1.11 1.09 1.19
0.14 0.15 0.17 0.16 0.15 0.13 0.14 0.13 0.12 0.13 0.18 0.19 0.15 0.10 0.10 0.11 0.13 0.14 0.14 0.14 0.15 0.15 0.17 0.19 0.20 0.21 0.24 0.27 0.33 0.41 0.47 0.55 0.64 0.73 0.84 0.87 0.93 0.92 0.93 0.97 1.00 1.06 1.07 1.20
0.17 0.22 0.17 0.16 0.14 0.16 0.12 0.17 0.16 0.16 0.14 0.10 0.17 0.07 0.10 0.11 0.10 0.11 0.11 0.12 0.12 0.14 0.19 0.21 0.23 0.24 0.25 0.26 0.31 0.38 0.46 0.53 0.62 0.73 0.74 0.73 0.72 0.72 0.81 0.88 0.95 1.00 1.08 1.13
0.17 0.19 0.17 0.15 0.15 0.19 0.16 0.21 0.19 0.18 0.15 0.14 0.14 0.10 0.09 0.12 0.09 0.10 0.14 0.15 0.19 0.21 0.23 0.25 0.27 0.28 0.29 0.30 0.30 0.35 0.44 0.53 0.62 0.69 0.73 0.72 0.74 0.78 0.84 0.87 0.90 0.94 1.02 1.10
0.21 0.28 0.23 0.19 0.21 0.21 0.23 0.19 0.19 0.19 0.15 0.09 0.11 0.10 0.08 0.09 0.10 0.15 0.19 0.21 0.22 0.23 0.23 0.26 0.29 0.30 0.31 0.34 0.36 0.38 0.43 0.50 0.61 0.68 0.73 0.73 0.71 0.72 0.75 0.79 0.81 0.86 0.92 0.97
0.22 0.22 0.26 0.26 0.19 0.23 0.21 0.15 0.09 0.08 0.09 0.07 0.14 0.11 0.10 0.12 0.14 0.16 0.18 0.20 0.23 0.25 0.25 0.26 0.27 0.28 0.30 0.33 0.35 0.40 0.43 0.46 0.57 0.62 0.66 0.70 0.72 0.75 0.74 0.77 0.78 0.79 0.80 0.82
0.15 0.13 0.21 0.25 0.20 0.17 0.18 0.14 0.09 0.06 0.06 0.08 0.16 0.09 0.10 0.18 0.20 0.20 0.22 0.25 0.28 0.29 0.30 0.31 0.33 0.34 0.34 0.35 0.38 0.41 0.42 0.44 0.50 0.57 0.62 0.68 0.72 0.72 0.72 0.73 0.73 0.74 0.74 0.76
0.17 0.15 0.26 0.26 0.24 0.21 0.19 0.15 0.18 0.13 0.14 0.10 0.11 0.13 0.16 0.18 0.20 0.22 0.25 0.28 0.28 0.31 0.34 0.34 0.37 0.39 0.41 0.42 0.43 0.44 0.45 0.47 0.49 0.51 0.54 0.57 0.61 0.64 0.65 0.68 0.71 0.71 0.73 0.73
0.20 0.14 0.23 0.26 0.28 0.26 0.21 0.23 0.14 0.15 0.08 0.07 0.09 0.10 0.09 0.13 0.18 0.25 0.27 0.28 0.31 0.33 0.35 0.37 0.40 0.42 0.44 0.46 0.47 0.48 0.49 0.48 0.50 0.51 0.53 0.55 0.57 0.60 0.63 0.66 0.65 0.67 0.70 0.72
0.22 0.19 0.21 0.26 0.20 0.17 0.20 0.18 0.18 0.17 0.14 0.08 0.07 0.09 0.16 0.16 0.23 0.23 0.26 0.29 0.32 0.35 0.38 0.40 0.42 0.45 0.46 0.48 0.49 0.50 0.51 0.52 0.53 0.55 0.55 0.56 0.57 0.59 0.61 0.62 0.63 0.65 0.68 0.70
0.26 0.22 0.17 0.20 0.27 0.28 0.24 0.19 0.18 0.13 0.12 0.14 0.12 0.11 0.25 0.27 0.28 0.30 0.31 0.33 0.35 0.39 0.40 0.40 0.43 0.46 0.49 0.50 0.52 0.52 0.53 0.54 0.56 0.58 0.57 0.57 0.59 0.60 0.60 0.61 0.63 0.67 0.68 0.70
0.29 0.23 0.18 0.21 0.27 0.30 0.25 0.25 0.24 0.22 0.21 0.15 0.13 0.14 0.31 0.32 0.32 0.35 0.35 0.37 0.38 0.39 0.41 0.43 0.45 0.46 0.48 0.49 0.51 0.52 0.53 0.55 0.57 0.58 0.57 0.58 0.59 0.59 0.59 0.61 0.64 0.67 0.67 0.67
0.46 0.32 0.24 0.18 0.21 0.27 0.24 0.26 0.28 0.26 0.20 0.17 0.17 0.19 0.26 0.30 0.31 0.35 0.37 0.40 0.41 0.44 0.47 0.49 0.50 0.51 0.52 0.53 0.53 0.53 0.53 0.55 0.56 0.55 0.54 0.54 0.56 0.58 0.60 0.61 0.61 0.64 0.67 0.65
0.50 0.37 0.39 0.40 0.40 0.39 0.37 0.34 0.34 0.31 0.30 0.26 0.25 0.27 0.30 0.34 0.37 0.39 0.43 0.45 0.46 0.48 0.50 0.52 0.52 0.54 0.55 0.55 0.55 0.55 0.57 0.58 0.58 0.58 0.58 0.56 0.57 0.58 0.59 0.58 0.58 0.59 0.60 0.60
0.55 0.42 0.45 0.40 0.46 0.45 0.40 0.43 0.41 0.40 0.39 0.37 0.37 0.34 0.43 0.46 0.48 0.46 0.48 0.50 0.51 0.52 0.53 0.54 0.55 0.56 0.56 0.56 0.56 0.58 0.59 0.59 0.60 0.58 0.57 0.57 0.55 0.54 0.53 0.54 0.55 0.56 0.57 0.58
0.52 0.48 0.44 0.36 0.46 0.45 0.37 0.38 0.42 0.43 0.45 0.43 0.34 0.39 0.47 0.47 0.50 0.52 0.53 0.54 0.53 0.53 0.51 0.50 0.50 0.50 0.50 0.51 0.51 0.48 0.49 0.52 0.52 0.53 0.54 0.54 0.54 0.52 0.52 0.53 0.53 0.53 0.54 0.56
0.48 0.46 0.46 0.36 0.40 0.26 0.33 0.41 0.41 0.38 0.42 0.47 0.45 0.47 0.48 0.50 0.52 0.51 0.50 0.47 0.46 0.46 0.45 0.44 0.42 0.41 0.41 0.43 0.43 0.45 0.45 0.44 0.43 0.43 0.44 0.44 0.45 0.45 0.47 0.48 0.46 0.46 0.48 0.50
0.56 0.47 0.37 0.32 0.30 0.31 0.31 0.34 0.36 0.35 0.33 0.41 0.39 0.43 0.45 0.43 0.42 0.42 0.45 0.44 0.43 0.42 0.42 0.41 0.41 0.41 0.41 0.40 0.41 0.40 0.38 0.38 0.38 0.37 0.37 0.36 0.36 0.33 0.33 0.32 0.32 0.34 0.35 0.38
0.51 0.51 0.40 0.33 0.26 0.22 0.28 0.35 0.39 0.36 0.24 0.33 0.34 0.31 0.30 0.31 0.23 0.28 0.39 0.38 0.38 0.38 0.38 0.39 0.39 0.40 0.40 0.41 0.41 0.39 0.37 0.36 0.34 0.34 0.33 0.34 0.33 0.32 0.32 0.35 0.37 0.36 0.36 0.35
0.31 0.34 0.29 0.30 0.27 0.28 0.31 0.32 0.32 0.20 0.17 0.25 0.26 0.28 0.29 0.26 0.28 0.31 0.32 0.30 0.31 0.31 0.33 0.36 0.36 0.35 0.36 0.38 0.38 0.36 0.35 0.33 0.34 0.33 0.32 0.32 0.33 0.32 0.34 0.35 0.37 0.37 0.38 0.39
0.19 0.21 0.21 0.24 0.22 0.15 0.26 0.26 0.18 0.18 0.22 0.22 0.22 0.21 0.20 0.22 0.24 0.23 0.24 0.25 0.26 0.27 0.28 0.31 0.30 0.30 0.31 0.32 0.32 0.30 0.29 0.32 0.32 0.32 0.30 0.30 0.31 0.33 0.33 0.33 0.36 0.37 0.37 0.37
0.13 0.18 0.16 0.18 0.16 0.21 0.23 0.21 0.25 0.26 0.23 0.23 0.23 0.23 0.22 0.21 0.21 0.22 0.22 0.24 0.25 0.26 0.27 0.29 0.27 0.26 0.26 0.26 0.26 0.21 0.22 0.26 0.28 0.28 0.27 0.27 0.28 0.29 0.31 0.32 0.34 0.37 0.39 0.38
0.16 0.19 0.13 0.13 0.14 0.17 0.22 0.28 0.32 0.29 0.26 0.25 0.23 0.22 0.22 0.19 0.19 0.19 0.20 0.21 0.23 0.25 0.26 0.26 0.24 0.21 0.20 0.21 0.22 0.23 0.24 0.25 0.25 0.24 0.25 0.27 0.27 0.28 0.31 0.34 0.36 0.35 0.36 0.39
0.14 0.16 0.13 0.14 0.15 0.20 0.23 0.28 0.27 0.26 0.27 0.26 0.27 0.25 0.24 0.23 0.21 0.20 0.20 0.20 0.23 0.24 0.24 0.22 0.21 0.19 0.18 0.20 0.20 0.22 0.24 0.25 0.23 0.23 0.24 0.25 0.29 0.30 0.31 0.35 0.38 0.37 0.37 0.38
0.16 0.13 0.12 0.10 0.16 0.16 0.18 0.24 0.24 0.22 0.22 0.22 0.21 0.20 0.20 0.20 0.18 0.19 0.18 0.20 0.21 0.21 0.22 0.21 0.20 0.19 0.19 0.20 0.20 0.21 0.24 0.24 0.23 0.23 0.24 0.26 0.27 0.30 0.32 0.32 0.34 0.40 0.40 0.41

GFSCGP_prec_pwat_072.txt.gz
Precipitable_Water
0.22 0.16 0.12 0.14 0.14 0.12 0.12 0.10 0.10 0.13 0.17 0.16 0.13 0.13 0.14 0.16 0.18 0.16 0.15 0.15 0.14 0.15 0.19 0.21 0.22 0.26 0.37 0.49 0.55 0.61 0.66 0.75 0.85 0.87 0.85 0.87 0.84 0.92 0.97 1.03 1.07 1.09 1.09 1.08
0.17 0.13 0.15 0.18 0.17 0.15 0.14 0.12 0.12 0.16 0.20 0.18 0.16 0.13 0.15 0.15 0.14 0.15 0.14 0.13 0.13 0.14 0.16 0.19 0.20 0.21 0.24 0.30 0.40 0.51 0.57 0.66 0.74 0.81 0.83 0.87 0.87 0.91 0.95 1.03 1.08 1.11 1.12 1.12
0.14 0.14 0.17 0.15 0.15 0.13 0.15 0.12 0.13 0.12 0.18 0.19 0.15 0.10 0.10 0.11 0.13 0.14 0.15 0.15 0.15 0.14 0.15 0.17 0.20 0.20 0.22 0.24 0.31 0.39 0.47 0.57 0.65 0.74 0.83 0.86 0.91 0.89 0.87 0.91 0.96 1.05 1.14 1.14
0.15 0.20 0.16 0.16 0.14 0.14 0.11 0.17 0.15 0.14 0.13 0.09 0.16 0.07 0.09 0.11 0.10 0.12 0.13 0.14 0.16 0.17 0.21 0.23 0.23 0.23 0.24 0.25 0.28 0.35 0.43 0.50 0.61 0.71 0.73 0.71 0.69 0.67 0.74 0.82 0.91 0.99 1.12 1.17
0.16 0.19 0.16 0.15 0.15 0.16 0.13 0.19 0.17 0.17 0.15 0.15 0.14 0.10 0.09 0.11 0.10 0.13 0.17 0.19 0.20 0.22 0.23 0.24 0.26 0.29 0.32 0.33 0.31 0.32 0.38 0.46 0.55 0.64 0.69 0.69 0.69 0.74 0.80 0.83 0.85 0.90 0.99 1.08
0.23 0.29 0.22 0.18 0.21 0.22 0.23 0.20 0.19 0.19 0.16 0.10 0.12 0.11 0.08 0.09 0.11 0.15 0.18 0.21 0.24 0.25 0.26 0.28 0.30 0.31 0.32 0.35 0.38 0.40 0.42 0.46 0.56 0.62 0.66 0.67 0.67 0.71 0.74 0.77 0.79 0.84 0.92 0.98
0.21 0.21 0.25 0.25 0.19 0.24 0.21 0.16 0.10 0.09 0.10 0.08 0.15 0.12 0.10 0.12 0.14 0.17 0.18 0.23 0.26 0.28 0.28 0.29 0.29 0.30 0.31 0.34 0.36 0.41 0.46 0.48 0.58 0.64 0.67 0.71 0.73 0.75 0.74 0.77 0.79 0.81 0.84 0.87
0.16 0.13 0.21 0.26 0.20 0.17 0.18 0.15 0.09 0.07 0.07 0.08 0.16 0.09 0.10 0.18 0.18 0.19 0.23 0.26 0.29 0.31 0.33 0.34 0.35 0.35 0.35 0.36 0.38 0.41 0.43 0.46 0.54 0.60 0.63 0.68 0.72 0.73 0.74 0.74 0.74 0.74 0.75 0.77
0.21 0.19 0.27 0.25 0.25 0.23 0.19 0.14 0.16 0.12 0.14 0.10 0.10 0.13 0.15 0.19 0.21 0.24 0.24 0.28 0.29 0.31 0.34 0.35 0.37 0.39 0.40 0.41 0.42 0.43 0.44 0.46 0.48 0.50 0.53 0.55 0.58 0.60 0.62 0.66 0.69 0.69 0.71 0.72
0.26 0.20 0.29 0.27 0.27 0.26 0.21 0.22 0.14 0.14 0.08 0.07 0.09 0.10 0.09 0.15 0.19 0.24 0.26 0.28 0.31 0.34 0.35 0.37 0.38 0.40 0.43 0.45 0.46 0.48 0.49 0.49 0.51 0.52 0.52 0.53 0.54 0.56 0.59 0.61 0.61 0.63 0.66 0.69
0.28 0.24 0.26 0.28 0.22 0.18 0.20 0.17 0.16 0.15 0.12 0.08 0.08 0.10 0.17 0.20 0.23 0.24 0.27 0.31 0.33 0.35 0.36 0.39 0.43 0.46 0.47 0.49 0.49 0.50 0.52 0.53 0.54 0.56 0.57 0.57 0.57 0.58 0.59 0.60 0.61 0.63 0.65 0.66
0.26 0.23 0.20 0.24 0.30 0.30 0.24 0.18 0.17 0.12 0.12 0.14 0.12 0.11 0.25 0.26 0.27 0.28 0.28 0.32 0.35 0.38 0.39 0.41 0.43 0.46 0.47 0.49 0.51 0.52 0.54 0.55 0.56 0.58 0.59 0.59 0.60 0.60 0.60 0.61 0.62 0.63 0.63 0.65
0.25 0.20 0.16 0.19 0.26 0.31 0.24 0.23 0.21 0.19 0.18 0.12 0.10 0.11 0.25 0.28 0.30 0.32 0.31 0.34 0.36 0.38 0.41 0.44 0.47 0.47 0.48 0.50 0.51 0.51 0.52 0.52 0.54 0.54 0.53 0.52 0.52 0.52 0.52 0.53 0.54 0.57 0.59 0.59
0.32 0.23 0.18 0.13 0.16 0.22 0.20 0.23 0.24 0.21 0.16 0.14 0.14 0.16 0.24 0.27 0.30 0.34 0.36 0.38 0.40 0.44 0.46 0.48 0.48 0.50 0.52 0.54 0.55 0.55 0.56 0.57 0.57 0.57 0.57 0.56 0.56 0.57 0.57 0.57 0.56 0.56 0.58 0.58
0.37 0.25 0.25 0.25 0.25 0.24 0.22 0.21 0.22 0.21 0.19 0.17 0.17 0.19 0.24 0.29 0.33 0.38 0.41 0.43 0.45 0.47 0.48 0.50 0.51 0.52 0.53 0.55 0.57 0.57 0.56 0.54 0.54 0.53 0.54 0.54 0.56 0.57 0.58 0.57 0.56 0.57 0.57 0.57
0.49 0.36 0.36 0.30 0.34 0.32 0.27 0.29 0.28 0.27 0.27 0.26 0.25 0.23 0.33 0.39 0.43 0.43 0.46 0.48 0.48 0.50 0.51 0.52 0.51 0.52 0.53 0.54 0.54 0.54 0.53 0.52 0.51 0.49 0.48 0.50 0.49 0.49 0.49 0.50 0.50 0.50 0.50 0.52
0.49 0.44 0.40 0.33 0.42 0.40 0.33 0.33 0.36 0.36 0.39 0.36 0.29 0.34 0.44 0.44 0.45 0.48 0.50 0.51 0.51 0.53 0.54 0.54 0.52 0.51 0.51 0.51 0.50 0.47 0.47 0.47 0.45 0.45 0.45 0.44 0.43 0.42 0.42 0.43 0.42 0.42 0.42 0.43
0.51 0.47 0.45 0.37 0.41 0.29 0.37 0.46 0.47 0.43 0.44 0.46 0.44 0.45 0.48 0.50 0.55 0.57 0.57 0.54 0.51 0.51 0.50 0.50 0.49 0.48 0.47 0.47 0.46 0.44 0.43 0.41 0.39 0.38 0.38 0.38 0.37 0.35 0.34 0.34 0.33 0.32 0.33 0.33
0.59 0.50 0.40 0.34 0.33 0.37 0.37 0.39 0.41 0.40 0.37 0.46 0.45 0.48 0.50 0.52 0.53 0.50 0.51 0.49 0.46 0.46 0.47 0.47 0.47 0.45 0.43 0.39 0.38 0.37 0.37 0.37 0.35 0.34 0.32 0.32 0.31 0.30 0.29 0.28 0.28 0.29 0.29 0.30
0.55 0.53 0.41 0.36 0.29 0.24 0.31 0.38 0.44 0.41 0.27 0.38 0.42 0.42 0.43 0.43 0.31 0.33 0.40 0.40 0.40 0.40 0.41 0.39 0.37 0.35 0.33 0.33 0.34 0.31 0.30 0.29 0.29 0.30 0.29 0.30 0.29 0.28 0.27 0.27 0.27 0.28 0.28 0.27
0.42 0.42 0.36 0.35 0.31 0.31 0.36 0.39 0.41 0.26 0.24 0.36 0.38 0.38 0.36 0.30 0.32 0.36 0.38 0.35 0.35 0.33 0.31 0.31 0.30 0.28 0.28 0.29 0.28 0.25 0.25 0.23 0.25 0.26 0.25 0.26 0.27 0.26 0.27 0.25 0.25 0.25 0.25 0.26
0.33 0.33 0.33 0.34 0.30 0.23 0.38 0.35 0.28 0.30 0.34 0.34 0.31 0.29 0.27 0.27 0.27 0.26 0.26 0.25 0.24 0.24 0.25 0.27 0.26 0.26 0.26 0.26 0.25 0.23 0.21 0.23 0.23 0.22 0.22 0.22 0.22 0.23 0.24 0.24 0.24 0.25 0.25 0.26
0.26 0.29 0.27 0.28 0.27 0.34 0.35 0.32 0.34 0.33 0.28 0.26 0.24 0.24 0.22 0.21 0.20 0.21 0.21 0.22 0.23 0.23 0.23 0.25 0.25 0.24 0.25 0.25 0.25 0.21 0.20 0.21 0.20 0.20 0.19 0.20 0.21 0.22 0.23 0.22 0.23 0.24 0.27 0.26
0.24 0.29 0.22 0.23 0.25 0.26 0.28 0.31 0.30 0.28 0.23 0.23 0.23 0.22 0.21 0.19 0.20 0.19 0.20 0.20 0.20 0.22 0.23 0.25 0.24 0.23 0.21 0.22 0.22 0.21 0.22 0.23 0.22 0.21 0.20 0.20 0.20 0.21 0.23 0.24 0.25 0.24 0.25 0.27
0.18 0.19 0.18 0.18 0.18 0.22 0.25 0.27 0.25 0.23 0.24 0.23 0.23 0.22 0.21 0.21 0.20 0.20 0.20 0.21 0.22 0.23 0.23 0.23 0.21 0.19 0.18 0.19 0.18 0.20 0.20 0.22 0.19 0.19 0.19 0.20 0.21 0.21 0.22 0.25 0.26 0.26 0.28 0.29
0.18 0.15 0.13 0.11 0.17 0.18 0.21 0.26 0.25 0.23 0.23 0.24 0.24 0.23 0.24 0.23 0.21 0.21 0.19 0.19 0.19 0.18 0.17 0.16 0.16 0.16 0.16 0.17 0.17 0.17 0.18 0.19 0.18 0.17 0.17 0.18 0.19 0.20 0.22 0.24 0.25 0.30 0.31 0.33

GFSCGP_prec_pwat_075.txt.gz
Precipitable_Water
0.24 0.19 0.16 0.15 0.15 0.13 0.13 0.11 0.10 0.13 0.17 0.15 0.12 0.11 0.12 0.15 0.16 0.15 0.16 0.17 0.17 0.17 0.18 0.21 0.23 0.25 0.35 0.49 0.57 0.64 0.68 0.74 0.83 0.83 0.83 0.86 0.82 0.92 0.97 1.03 1.07 1.09 1.10 1.06
0.20 0.15 0.17 0.19 0.17 0.14 0.12 0.11 0.11 0.16 0.19 0.16 0.14 0.12 0.13 0.14 0.14 0.15 0.16 0.16 0.16 0.15 0.16 0.16 0.18 0.21 0.23 0.29 0.42 0.53 0.59 0.67 0.73 0.78 0.82 0.87 0.88 0.92 0.96 1.00 1.04 1.07 1.08 1.10
0.16 0.16 0.19 0.18 0.16 0.14 0.13 0.11 0.12 0.13 0.18 0.17 0.14 0.10 0.10 0.12 0.14 0.15 0.15 0.16 0.16 0.15 0.16 0.19 0.19 0.21 0.22 0.23 0.29 0.39 0.50 0.58 0.67 0.75 0.81 0.83 0.90 0.90 0.89 0.89 0.92 0.99 1.07 1.12
0.17 0.20 0.18 0.17 0.15 0.15 0.11 0.16 0.16 0.15 0.13 0.09 0.15 0.07 0.09 0.11 0.12 0.14 0.17 0.18 0.19 0.20 0.22 0.23 0.23 0.24 0.25 0.24 0.25 0.32 0.42 0.50 0.62 0.73 0.73 0.71 0.69 0.67 0.75 0.82 0.88 0.93 1.03 1.09
0.16 0.17 0.16 0.14 0.14 0.15 0.12 0.17 0.16 0.15 0.13 0.13 0.13 0.09 0.09 0.12 0.11 0.15 0.17 0.19 0.22 0.24 0.25 0.25 0.27 0.30 0.33 0.35 0.32 0.31 0.36 0.45 0.54 0.63 0.68 0.69 0.69 0.74 0.81 0.84 0.85 0.90 0.97 1.05
0.22 0.26 0.21 0.18 0.19 0.18 0.20 0.17 0.18 0.18 0.15 0.10 0.12 0.10 0.08 0.09 0.11 0.16 0.18 0.23 0.25 0.26 0.28 0.30 0.32 0.34 0.34 0.37 0.41 0.42 0.40 0.44 0.53 0.60 0.65 0.67 0.68 0.71 0.74 0.77 0.80 0.86 0.92 0.95
0.23 0.22 0.26 0.26 0.18 0.22 0.19 0.15 0.10 0.10 0.09 0.08 0.15 0.12 0.09 0.12 0.16 0.18 0.19 0.25 0.28 0.30 0.31 0.31 0.31 0.32 0.34 0.35 0.39 0.44 0.49 0.52 0.60 0.65 0.69 0.73 0.75 0.77 0.76 0.78 0.78 0.79 0.82 0.84
0.15 0.14 0.22 0.26 0.20 0.17 0.17 0.13 0.09 0.08 0.08 0.08 0.15 0.09 0.10 0.17 0.20 0.21 0.26 0.28 0.30 0.31 0.33 0.34 0.35 0.36 0.37 0.38 0.40 0.41 0.42 0.44 0.51 0.58 0.64 0.70 0.73 0.73 0.73 0.74 0.74 0.73 0.73 0.74
0.15 0.15 0.27 0.27 0.26 0.23 0.18 0.13 0.16 0.11 0.14 0.10 0.11 0.13 0.15 0.19 0.21 0.24 0.26 0.28 0.29 0.31 0.33 0.35 0.37 0.39 0.40 0.41 0.43 0.44 0.45 0.46 0.48 0.49 0.51 0.53 0.55 0.57 0.58 0.60 0.63 0.64 0.67 0.68
0.21 0.15 0.25 0.28 0.30 0.27 0.21 0.21 0.13 0.13 0.08 0.08 0.09 0.10 0.09 0.16 0.19 0.24 0.25 0.27 0.30 0.33 0.36 0.38 0.39 0.41 0.43 0.45 0.48 0.50 0.50 0.50 0.52 0.54 0.55 0.55 0.56 0.57 0.58 0.59 0.58 0.59 0.62 0.64
0.23 0.21 0.24 0.30 0.26 0.23 0.23 0.17 0.16 0.15 0.13 0.08 0.08 0.09 0.14 0.17 0.22 0.23 0.27 0.31 0.33 0.34 0.38 0.41 0.43 0.46 0.47 0.50 0.51 0.51 0.52 0.52 0.53 0.54 0.55 0.56 0.57 0.58 0.60 0.59 0.60 0.61 0.62 0.63
0.27 0.25 0.21 0.24 0.32 0.33 0.28 0.22 0.18 0.12 0.11 0.13 0.12 0.11 0.22 0.24 0.27 0.29 0.30 0.33 0.36 0.39 0.41 0.42 0.44 0.46 0.47 0.48 0.49 0.50 0.51 0.51 0.52 0.54 0.54 0.54 0.54 0.54 0.53 0.52 0.53 0.54 0.53 0.55
0.27 0.22 0.20 0.24 0.30 0.33 0.28 0.26 0.23 0.18 0.17 0.12 0.11 0.11 0.25 0.28 0.28 0.31 0.32 0.34 0.38 0.40 0.42 0.44 0.45 0.46 0.48 0.49 0.51 0.50 0.51 0.51 0.53 0.53 0.53 0.53 0.53 0.53 0.53 0.54 0.56 0.56 0.55 0.55
0.32 0.27 0.23 0.20 0.21 0.29 0.29 0.27 0.28 0.23 0.17 0.15 0.14 0.15 0.21 0.24 0.26 0.30 0.33 0.36 0.39 0.42 0.43 0.45 0.46 0.47 0.50 0.51 0.51 0.51 0.51 0.52 0.51 0.50 0.48 0.47 0.48 0.49 0.50 0.51 0.51 0.51 0.52 0.52
0.30 0.20 0.22 0.23 0.22 0.22 0.20 0.20 0.22 0.20 0.19 0.18 0.17 0.17 0.21 0.25 0.28 0.33 0.37 0.39 0.41 0.42 0.45 0.46 0.47 0.49 0.49 0.50 0.51 0.52 0.52 0.52 0.51 0.49 0.48 0.48 0.49 0.49 0.49 0.49 0.49 0.50 0.50 0.48
0.34 0.24 0.27 0.24 0.27 0.24 0.20 0.22 0.22 0.21 0.21 0.21 0.20 0.19 0.26 0.32 0.37 0.38 0.39 0.42 0.43 0.45 0.48 0.49 0.50 0.50 0.50 0.51 0.51 0.51 0.51 0.51 0.52 0.51 0.50 0.50 0.49 0.48 0.46 0.46 0.45 0.44 0.43 0.41
0.34 0.30 0.26 0.21 0.30 0.29 0.24 0.22 0.23 0.23 0.25 0.22 0.19 0.22 0.31 0.31 0.35 0.38 0.42 0.47 0.48 0.51 0.52 0.52 0.52 0.52 0.53 0.54 0.54 0.51 0.50 0.49 0.46 0.44 0.44 0.43 0.42 0.39 0.37 0.36 0.34 0.32 0.32 0.32
0.42 0.39 0.38 0.31 0.36 0.24 0.27 0.34 0.32 0.29 0.31 0.33 0.33 0.34 0.38 0.41 0.46 0.50 0.54 0.53 0.54 0.54 0.54 0.54 0.55 0.54 0.54 0.54 0.52 0.50 0.46 0.43 0.39 0.37 0.34 0.33 0.31 0.29 0.29 0.28 0.26 0.25 0.25 0.24
0.55 0.47 0.40 0.35 0.33 0.36 0.37 0.38 0.39 0.37 0.34 0.44 0.43 0.46 0.49 0.52 0.54 0.53 0.58 0.59 0.57 0.56 0.56 0.54 0.52 0.50 0.47 0.43 0.39 0.34 0.31 0.29 0.27 0.26 0.26 0.25 0.24 0.21 0.21 0.20 0.21 0.22 0.22 0.21
0.56 0.54 0.45 0.39 0.31 0.25 0.33 0.41 0.50 0.50 0.32 0.46 0.51 0.50 0.52 0.54 0.44 0.48 0.54 0.54 0.51 0.48 0.46 0.44 0.43 0.40 0.35 0.32 0.31 0.28 0.26 0.25 0.23 0.23 0.23 0.22 0.21 0.20 0.19 0.19 0.19 0.20 0.20 0.20
0.41 0.44 0.38 0.37 0.34 0.35 0.41 0.43 0.48 0.31 0.29 0.44 0.47 0.47 0.47 0.44 0.45 0.48 0.46 0.43 0.42 0.41 0.40 0.38 0.35 0.30 0.29 0.29 0.27 0.24 0.23 0.21 0.23 0.22 0.21 0.20 0.20 0.19 0.19 0.19 0.20 0.20 0.20 0.20
0.39 0.36 0.34 0.38 0.33 0.28 0.43 0.43 0.34 0.38 0.40 0.41 0.43 0.43 0.42 0.42 0.41 0.39 0.38 0.36 0.33 0.30 0.29 0.29 0.26 0.26 0.26 0.27 0.25 0.23 0.21 0.22 0.22 0.21 0.20 0.19 0.19 0.19 0.20 0.19 0.19 0.19 0.20 0.19
0.37 0.42 0.39 0.41 0.38 0.45 0.44 0.42 0.43 0.41 0.37 0.38 0.37 0.37 0.35 0.31 0.29 0.27 0.26 0.25 0.24 0.24 0.24 0.25 0.25 0.25 0.26 0.26 0.24 0.20 0.20 0.20 0.19 0.18 0.18 0.18 0.18 0.18 0.18 0.17 0.16 0.17 0.19 0.19
0.37 0.41 0.36 0.38 0.42 0.41 0.40 0.42 0.42 0.41 0.36 0.35 0.31 0.27 0.26 0.22 0.21 0.21 0.21 0.22 0.22 0.23 0.24 0.26 0.25 0.23 0.21 0.20 0.19 0.18 0.18 0.17 0.16 0.15 0.15 0.16 0.16 0.17 0.18 0.18 0.17 0.17 0.17 0.18
0.28 0.32 0.30 0.29 0.30 0.35 0.36 0.36 0.35 0.34 0.32 0.27 0.25 0.24 0.22 0.22 0.22 0.23 0.22 0.23 0.23 0.24 0.24 0.23 0.19 0.16 0.14 0.14 0.14 0.14 0.14 0.14 0.13 0.13 0.14 0.14 0.15 0.16 0.16 0.17 0.18 0.18 0.20 0.21
0.21 0.19 0.19 0.19 0.25 0.25 0.26 0.32 0.32 0.26 0.24 0.25 0.24 0.24 0.25 0.24 0.23 0.23 0.23 0.24 0.23 0.20 0.18 0.15 0.13 0.12 0.12 0.12 0.12 0.13 0.15 0.15 0.14 0.13 0.13 0.14 0.14 0.15 0.15 0.16 0.16 0.20 0.23 0.25

GFSCGP_prec_pwat_078.txt.gz
Precipitable_Water
0.30 0.23 0.18 0.18 0.19 0.17 0.16 0.14 0.13 0.13 0.17 0.14 0.13 0.12 0.13 0.15 0.15 0.15 0.16 0.17 0.17 0.18 0.20 0.22 0.24 0.27 0.38 0.55 0.62 0.68 0.75 0.83 0.91 0.89 0.85 0.88 0.85 0.93 0.97 1.01 1.04 1.07 1.08 1.09
0.24 0.18 0.22 0.22 0.19 0.17 0.15 0.12 0.12 0.16 0.18 0.16 0.14 0.12 0.14 0.14 0.15 0.15 0.15 0.16 0.17 0.17 0.18 0.18 0.20 0.22 0.25 0.32 0.47 0.57 0.65 0.75 0.83 0.86 0.88 0.91 0.91 0.93 0.97 1.03 1.03 1.06 1.08 1.12
0.18 0.20 0.23 0.20 0.18 0.14 0.14 0.13 0.13 0.12 0.17 0.17 0.14 0.10 0.10 0.12 0.14 0.15 0.16 0.17 0.17 0.18 0.18 0.20 0.20 0.21 0.23 0.24 0.32 0.44 0.56 0.65 0.74 0.82 0.88 0.89 0.93 0.91 0.88 0.90 0.94 1.01 1.07 1.11
0.20 0.22 0.19 0.18 0.17 0.16 0.13 0.15 0.14 0.14 0.12 0.10 0.14 0.07 0.10 0.11 0.12 0.15 0.17 0.19 0.20 0.21 0.23 0.24 0.25 0.26 0.27 0.27 0.28 0.34 0.45 0.56 0.68 0.78 0.78 0.75 0.71 0.67 0.78 0.85 0.93 0.98 1.04 1.06
0.19 0.19 0.17 0.16 0.16 0.19 0.16 0.18 0.16 0.16 0.14 0.12 0.12 0.10 0.10 0.12 0.11 0.14 0.17 0.20 0.23 0.25 0.26 0.26 0.28 0.31 0.34 0.36 0.31 0.29 0.37 0.47 0.58 0.66 0.72 0.72 0.71 0.77 0.84 0.87 0.88 0.93 0.98 1.02
0.22 0.25 0.21 0.19 0.21 0.21 0.21 0.18 0.18 0.18 0.14 0.09 0.12 0.11 0.09 0.10 0.11 0.15 0.18 0.23 0.26 0.29 0.30 0.31 0.34 0.36 0.38 0.44 0.44 0.40 0.40 0.46 0.55 0.63 0.68 0.71 0.70 0.73 0.76 0.79 0.81 0.86 0.91 0.95
0.23 0.21 0.25 0.24 0.18 0.23 0.18 0.14 0.12 0.11 0.10 0.09 0.13 0.12 0.10 0.12 0.15 0.17 0.19 0.25 0.28 0.31 0.32 0.33 0.33 0.34 0.36 0.39 0.45 0.51 0.52 0.51 0.58 0.62 0.66 0.69 0.72 0.74 0.74 0.77 0.79 0.81 0.82 0.83
0.16 0.15 0.22 0.25 0.20 0.16 0.17 0.14 0.11 0.07 0.08 0.09 0.15 0.09 0.10 0.16 0.19 0.21 0.26 0.30 0.32 0.32 0.34 0.34 0.36 0.37 0.38 0.39 0.41 0.42 0.44 0.46 0.55 0.62 0.66 0.72 0.75 0.75 0.74 0.73 0.71 0.71 0.73 0.74
0.16 0.18 0.28 0.27 0.25 0.21 0.17 0.13 0.16 0.12 0.13 0.10 0.10 0.12 0.14 0.18 0.18 0.22 0.26 0.30 0.31 0.33 0.35 0.36 0.38 0.39 0.41 0.42 0.44 0.45 0.45 0.47 0.48 0.50 0.51 0.53 0.55 0.55 0.56 0.59 0.61 0.62 0.64 0.64
0.19 0.15 0.26 0.27 0.27 0.25 0.19 0.19 0.12 0.13 0.08 0.07 0.08 0.09 0.09 0.14 0.17 0.21 0.23 0.26 0.30 0.34 0.36 0.38 0.40 0.42 0.44 0.46 0.47 0.48 0.49 0.49 0.51 0.53 0.54 0.55 0.56 0.58 0.59 0.59 0.59 0.60 0.61 0.62
0.21 0.18 0.22 0.27 0.21 0.18 0.18 0.16 0.16 0.15 0.12 0.09 0.08 0.08 0.13 0.14 0.20 0.22 0.26 0.29 0.32 0.35 0.38 0.40 0.43 0.46 0.47 0.48 0.49 0.49 0.50 0.50 0.51 0.52 0.52 0.53 0.53 0.54 0.55 0.55 0.55 0.55 0.56 0.55
0.25 0.23 0.19 0.21 0.29 0.29 0.23 0.17 0.17 0.13 0.11 0.12 0.11 0.10 0.17 0.19 0.24 0.27 0.29 0.32 0.36 0.40 0.41 0.43 0.44 0.46 0.46 0.46 0.47 0.48 0.48 0.48 0.49 0.50 0.50 0.49 0.50 0.50 0.49 0.50 0.51 0.52 0.51 0.52
0.27 0.22 0.18 0.22 0.26 0.29 0.23 0.23 0.22 0.21 0.20 0.15 0.12 0.11 0.22 0.23 0.26 0.30 0.31 0.35 0.38 0.40 0.41 0.43 0.44 0.45 0.46 0.46 0.47 0.47 0.47 0.47 0.48 0.48 0.48 0.47 0.47 0.46 0.46 0.46 0.48 0.49 0.49 0.50
0.35 0.27 0.21 0.16 0.17 0.23 0.22 0.23 0.24 0.22 0.18 0.19 0.17 0.16 0.21 0.23 0.25 0.29 0.32 0.36 0.39 0.40 0.41 0.42 0.43 0.45 0.47 0.47 0.47 0.48 0.48 0.48 0.47 0.46 0.46 0.45 0.46 0.46 0.47 0.48 0.49 0.50 0.51 0.50
0.37 0.32 0.29 0.27 0.25 0.24 0.21 0.23 0.25 0.23 0.22 0.21 0.22 0.20 0.22 0.26 0.28 0.31 0.35 0.38 0.40 0.41 0.42 0.44 0.45 0.46 0.48 0.48 0.49 0.50 0.50 0.49 0.49 0.48 0.47 0.47 0.50 0.49 0.49 0.48 0.47 0.46 0.44 0.41
0.34 0.26 0.29 0.28 0.31 0.29 0.25 0.27 0.27 0.26 0.25 0.24 0.22 0.21 0.25 0.30 0.35 0.35 0.36 0.39 0.40 0.42 0.44 0.46 0.47 0.48 0.49 0.50 0.50 0.51 0.50 0.51 0.51 0.49 0.48 0.48 0.46 0.44 0.42 0.40 0.39 0.37 0.35 0.34
0.30 0.27 0.24 0.20 0.28 0.27 0.22 0.21 0.23 0.23 0.25 0.21 0.19 0.20 0.25 0.26 0.29 0.32 0.35 0.39 0.42 0.45 0.47 0.48 0.50 0.50 0.51 0.52 0.52 0.51 0.52 0.53 0.50 0.47 0.45 0.43 0.40 0.36 0.33 0.29 0.26 0.23 0.22 0.22
0.31 0.30 0.29 0.23 0.28 0.18 0.21 0.28 0.25 0.23 0.23 0.24 0.22 0.24 0.26 0.26 0.30 0.37 0.43 0.44 0.46 0.48 0.49 0.51 0.53 0.54 0.54 0.55 0.54 0.53 0.51 0.47 0.43 0.38 0.34 0.31 0.29 0.26 0.25 0.23 0.21 0.21 0.21 0.20
0.42 0.33 0.27 0.24 0.24 0.26 0.26 0.27 0.25 0.23 0.21 0.28 0.26 0.29 0.33 0.36 0.39 0.40 0.48 0.52 0.53 0.55 0.57 0.58 0.58 0.56 0.56 0.55 0.52 0.45 0.39 0.34 0.31 0.28 0.26 0.25 0.24 0.21 0.20 0.19 0.18 0.19 0.18 0.18
0.52 0.45 0.35 0.35 0.27 0.21 0.25 0.35 0.43 0.41 0.27 0.36 0.38 0.37 0.38 0.43 0.35 0.40 0.54 0.58 0.60 0.62 0.62 0.60 0.59 0.57 0.52 0.46 0.41 0.34 0.30 0.27 0.25 0.25 0.23 0.22 0.21 0.19 0.18 0.18 0.17 0.18 0.18 0.17
0.43 0.44 0.37 0.38 0.35 0.35 0.41 0.44 0.51 0.33 0.28 0.45 0.47 0.47 0.46 0.44 0.48 0.55 0.59 0.61 0.64 0.63 0.60 0.57 0.51 0.46 0.42 0.38 0.33 0.28 0.27 0.25 0.24 0.22 0.21 0.19 0.19 0.18 0.17 0.17 0.17 0.17 0.16 0.16
0.39 0.39 0.38 0.40 0.35 0.28 0.44 0.45 0.38 0.42 0.46 0.47 0.51 0.52 0.52 0.54 0.56 0.58 0.58 0.56 0.53 0.50 0.47 0.46 0.42 0.37 0.35 0.32 0.29 0.25 0.23 0.23 0.21 0.18 0.17 0.16 0.16 0.15 0.15 0.15 0.16 0.16 0.15 0.14
0.38 0.43 0.39 0.41 0.37 0.46 0.46 0.46 0.50 0.47 0.45 0.46 0.47 0.49 0.51 0.51 0.50 0.47 0.44 0.43 0.42 0.41 0.39 0.36 0.32 0.30 0.29 0.27 0.25 0.21 0.19 0.17 0.16 0.14 0.12 0.13 0.14 0.14 0.15 0.15 0.14 0.14 0.15 0.14
0.47 0.52 0.45 0.43 0.45 0.47 0.47 0.48 0.48 0.46 0.43 0.44 0.43 0.43 0.44 0.41 0.40 0.38 0.37 0.34 0.31 0.30 0.29 0.29 0.27 0.25 0.23 0.22 0.20 0.17 0.15 0.14 0.13 0.12 0.13 0.14 0.14 0.14 0.15 0.16 0.16 0.16 0.15 0.15
0.44 0.49 0.46 0.45 0.46 0.49 0.49 0.49 0.49 0.47 0.46 0.43 0.43 0.41 0.37 0.32 0.28 0.27 0.26 0.26 0.26 0.26 0.26 0.25 0.22 0.20 0.19 0.16 0.14 0.13 0.13 0.14 0.13 0.13 0.13 0.13 0.13 0.13 0.13 0.14 0.14 0.15 0.16 0.18
0.37 0.36 0.35 0.33 0.40 0.40 0.38 0.41 0.43 0.41 0.40 0.40 0.34 0.30 0.29 0.28 0.25 0.24 0.24 0.26 0.26 0.24 0.23 0.22 0.20 0.16 0.13 0.12 0.12 0.13 0.14 0.13 0.12 0.11 0.11 0.11 0.11 0.11 0.11 0.12 0.12 0.15 0.16 0.18

GFSCGP_prec_pwat_084.txt.gz
Precipitable_Water
0.48 0.35 0.29 0.26 0.28 0.30 0.27 0.25 0.25 0.27 0.26 0.23 0.21 0.20 0.19 0.20 0.16 0.17 0.17 0.16 0.17 0.19 0.23 0.25 0.33 0.53 0.61 0.71 0.74 0.79 0.81 0.84 0.84 0.80 0.82 0.83 0.81 0.89 0.95 1.01 1.05 1.07 1.10 1.12
0.39 0.30 0.33 0.33 0.31 0.29 0.27 0.26 0.23 0.24 0.25 0.22 0.20 0.17 0.19 0.18 0.17 0.16 0.17 0.18 0.20 0.21 0.22 0.22 0.24 0.26 0.37 0.54 0.65 0.72 0.78 0.83 0.85 0.85 0.85 0.88 0.88 0.92 0.96 1.01 1.03 1.07 1.09 1.11
0.35 0.32 0.34 0.29 0.27 0.25 0.25 0.23 0.23 0.21 0.23 0.22 0.18 0.14 0.14 0.15 0.17 0.17 0.17 0.19 0.20 0.20 0.20 0.22 0.24 0.24 0.25 0.29 0.45 0.62 0.70 0.79 0.86 0.89 0.91 0.90 0.91 0.89 0.88 0.92 0.96 1.02 1.05 1.07
0.37 0.37 0.31 0.27 0.25 0.25 0.20 0.23 0.23 0.21 0.17 0.13 0.16 0.08 0.11 0.12 0.13 0.14 0.16 0.16 0.17 0.21 0.24 0.25 0.27 0.27 0.28 0.28 0.30 0.41 0.63 0.74 0.85 0.93 0.89 0.81 0.73 0.69 0.80 0.85 0.91 0.94 1.01 1.01
0.34 0.31 0.30 0.25 0.24 0.26 0.21 0.23 0.22 0.20 0.17 0.14 0.14 0.10 0.12 0.15 0.11 0.12 0.16 0.18 0.21 0.24 0.26 0.27 0.29 0.32 0.35 0.35 0.30 0.31 0.44 0.64 0.79 0.89 0.91 0.87 0.78 0.82 0.85 0.87 0.86 0.89 0.96 0.99
0.34 0.36 0.33 0.29 0.29 0.26 0.27 0.24 0.22 0.21 0.17 0.11 0.13 0.11 0.10 0.11 0.12 0.15 0.19 0.21 0.23 0.25 0.27 0.30 0.36 0.40 0.43 0.39 0.33 0.34 0.44 0.58 0.73 0.82 0.87 0.84 0.77 0.76 0.78 0.82 0.82 0.85 0.92 0.96
0.30 0.30 0.32 0.31 0.25 0.28 0.24 0.18 0.14 0.12 0.11 0.11 0.15 0.13 0.11 0.14 0.16 0.16 0.17 0.22 0.25 0.27 0.29 0.32 0.34 0.39 0.46 0.46 0.45 0.47 0.51 0.55 0.66 0.71 0.75 0.79 0.75 0.77 0.76 0.77 0.77 0.78 0.80 0.85
0.25 0.21 0.28 0.31 0.26 0.22 0.23 0.17 0.13 0.10 0.10 0.11 0.15 0.11 0.11 0.16 0.19 0.20 0.23 0.26 0.28 0.30 0.31 0.32 0.35 0.38 0.42 0.47 0.52 0.51 0.53 0.55 0.63 0.67 0.70 0.74 0.74 0.75 0.75 0.76 0.77 0.71 0.67 0.67
0.23 0.23 0.30 0.29 0.29 0.24 0.21 0.16 0.21 0.16 0.17 0.13 0.13 0.13 0.16 0.18 0.17 0.19 0.23 0.25 0.26 0.29 0.31 0.33 0.36 0.39 0.41 0.44 0.47 0.50 0.52 0.54 0.57 0.59 0.61 0.62 0.63 0.60 0.57 0.58 0.60 0.59 0.60 0.60
0.25 0.21 0.29 0.28 0.29 0.26 0.21 0.21 0.15 0.17 0.11 0.10 0.12 0.11 0.10 0.13 0.13 0.18 0.21 0.23 0.26 0.30 0.32 0.34 0.36 0.39 0.42 0.44 0.46 0.47 0.49 0.48 0.50 0.51 0.53 0.53 0.54 0.55 0.55 0.54 0.52 0.51 0.50 0.49
0.28 0.25 0.26 0.28 0.23 0.20 0.21 0.17 0.17 0.17 0.17 0.11 0.09 0.10 0.14 0.13 0.14 0.16 0.21 0.25 0.27 0.29 0.32 0.35 0.38 0.41 0.44 0.46 0.46 0.47 0.48 0.49 0.50 0.51 0.50 0.49 0.48 0.47 0.46 0.45 0.45 0.46 0.46 0.47
0.31 0.28 0.22 0.23 0.28 0.28 0.23 0.18 0.18 0.14 0.13 0.14 0.14 0.11 0.17 0.16 0.17 0.19 0.22 0.26 0.29 0.32 0.35 0.38 0.40 0.42 0.43 0.44 0.46 0.46 0.47 0.46 0.46 0.46 0.45 0.45 0.44 0.44 0.43 0.43 0.44 0.44 0.44 0.44
0.29 0.26 0.21 0.22 0.26 0.27 0.22 0.21 0.21 0.20 0.19 0.13 0.10 0.11 0.19 0.19 0.19 0.22 0.23 0.27 0.29 0.33 0.36 0.39 0.41 0.40 0.42 0.43 0.44 0.44 0.44 0.44 0.45 0.44 0.44 0.43 0.42 0.43 0.43 0.43 0.43 0.42 0.41 0.41
0.29 0.25 0.20 0.16 0.18 0.22 0.21 0.20 0.20 0.18 0.15 0.13 0.13 0.13 0.15 0.19 0.19 0.23 0.26 0.29 0.31 0.33 0.36 0.38 0.40 0.41 0.42 0.43 0.42 0.42 0.42 0.44 0.45 0.45 0.44 0.43 0.43 0.43 0.43 0.41 0.40 0.40 0.41 0.40
0.28 0.20 0.22 0.22 0.23 0.21 0.19 0.19 0.19 0.18 0.15 0.14 0.13 0.14 0.15 0.18 0.21 0.25 0.29 0.33 0.35 0.37 0.39 0.41 0.42 0.43 0.45 0.44 0.44 0.45 0.46 0.46 0.46 0.44 0.43 0.43 0.43 0.43 0.42 0.41 0.41 0.39 0.38 0.36
0.32 0.22 0.23 0.21 0.24 0.25 0.21 0.22 0.21 0.19 0.18 0.18 0.16 0.15 0.19 0.22 0.28 0.29 0.31 0.34 0.36 0.38 0.42 0.45 0.47 0.47 0.46 0.46 0.46 0.46 0.46 0.45 0.44 0.44 0.43 0.43 0.42 0.41 0.40 0.39 0.37 0.36 0.34 0.30
0.33 0.30 0.26 0.21 0.26 0.24 0.20 0.20 0.21 0.20 0.21 0.19 0.17 0.18 0.23 0.23 0.25 0.28 0.31 0.34 0.36 0.38 0.41 0.43 0.46 0.46 0.47 0.47 0.46 0.45 0.44 0.45 0.45 0.43 0.42 0.42 0.42 0.40 0.39 0.38 0.36 0.32 0.27 0.25
0.40 0.38 0.34 0.28 0.27 0.19 0.22 0.27 0.26 0.25 0.26 0.28 0.23 0.23 0.25 0.26 0.28 0.31 0.34 0.34 0.37 0.41 0.43 0.46 0.47 0.48 0.48 0.49 0.48 0.47 0.47 0.46 0.45 0.44 0.43 0.43 0.41 0.39 0.38 0.36 0.30 0.26 0.23 0.21
0.40 0.38 0.35 0.31 0.29 0.27 0.26 0.28 0.28 0.29 0.27 0.34 0.31 0.31 0.32 0.33 0.35 0.35 0.39 0.39 0.39 0.42 0.45 0.46 0.48 0.49 0.49 0.48 0.47 0.47 0.47 0.47 0.45 0.44 0.43 0.41 0.40 0.38 0.34 0.27 0.24 0.22 0.21 0.18
0.43 0.40 0.32 0.30 0.25 0.22 0.23 0.33 0.35 0.34 0.22 0.29 0.31 0.30 0.30 0.34 0.27 0.28 0.38 0.40 0.42 0.44 0.46 0.48 0.50 0.50 0.49 0.48 0.48 0.47 0.48 0.47 0.46 0.45 0.43 0.42 0.40 0.33 0.26 0.23 0.22 0.20 0.18 0.16
0.32 0.35 0.29 0.27 0.25 0.25 0.30 0.32 0.34 0.23 0.19 0.30 0.31 0.31 0.32 0.30 0.29 0.32 0.39 0.42 0.45 0.45 0.46 0.49 0.51 0.49 0.50 0.51 0.51 0.49 0.50 0.48 0.48 0.48 0.45 0.39 0.31 0.25 0.24 0.22 0.20 0.17 0.15 0.14
0.30 0.29 0.28 0.31 0.26 0.20 0.35 0.35 0.28 0.31 0.35 0.36 0.37 0.36 0.35 0.38 0.40 0.42 0.44 0.44 0.46 0.47 0.49 0.52 0.51 0.51 0.52 0.53 0.53 0.52 0.51 0.54 0.52 0.44 0.35 0.28 0.24 0.22 0.21 0.18 0.15 0.15 0.14 0.13
0.35 0.37 0.32 0.32 0.28 0.36 0.41 0.38 0.41 0.42 0.40 0.41 0.43 0.47 0.47 0.47 0.47 0.48 0.50 0.51 0.52 0.52 0.53 0.54 0.53 0.53 0.55 0.56 0.56 0.57 0.57 0.50 0.40 0.32 0.26 0.23 0.21 0.18 0.16 0.14 0.13 0.13 0.13 0.13
0.46 0.50 0.40 0.41 0.41 0.42 0.44 0.47 0.51 0.53 0.51 0.52 0.54 0.54 0.54 0.50 0.51 0.51 0.53 0.54 0.54 0.56 0.55 0.55 0.55 0.55 0.55 0.58 0.61 0.56 0.46 0.36 0.29 0.25 0.21 0.18 0.16 0.15 0.14 0.13 0.13 0.13 0.13 0.12
0.49 0.51 0.45 0.43 0.47 0.48 0.50 0.53 0.55 0.56 0.57 0.56 0.57 0.56 0.54 0.54 0.54 0.55 0.55 0.55 0.56 0.56 0.57 0.58 0.57 0.56 0.56 0.57 0.49 0.39 0.31 0.27 0.24 0.19 0.16 0.16 0.15 0.13 0.13 0.13 0.13 0.12 0.13 0.14
0.48 0.48 0.46 0.45 0.54 0.52 0.54 0.56 0.58 0.55 0.55 0.55 0.52 0.50 0.51 0.51 0.51 0.54 0.55 0.59 0.58 0.57 0.56 0.54 0.53 0.52 0.46 0.38 0.32 0.29 0.26 0.21 0.17 0.15 0.14 0.14 0.14 0.13 0.12 0.11 0.10 0.12 0.12 0.13

GFSCGP_prec_pwat_087.txt.gz
Precipitable_Water
0.82 0.68 0.56 0.51 0.46 0.37 0.32 0.26 0.24 0.29 0.33 0.27 0.23 0.22 0.21 0.21 0.18 0.17 0.15 0.17 0.20 0.23 0.31 0.44 0.56 0.64 0.69 0.73 0.75 0.78 0.78 0.83 0.86 0.81 0.83 0.85 0.83 0.91 0.96 1.01 1.04 1.06 1.08 1.09
0.68 0.59 0.63 0.54 0.40 0.34 0.30 0.26 0.26 0.30 0.31 0.27 0.24 0.22 0.24 0.23 0.21 0.17 0.16 0.16 0.18 0.21 0.22 0.27 0.37 0.52 0.60 0.65 0.71 0.75 0.77 0.82 0.85 0.82 0.83 0.86 0.88 0.92 0.95 1.01 1.04 1.07 1.07 1.08
0.59 0.59 0.60 0.49 0.35 0.31 0.30 0.27 0.26 0.26 0.29 0.29 0.24 0.19 0.21 0.23 0.22 0.20 0.18 0.19 0.20 0.20 0.21 0.22 0.25 0.31 0.42 0.53 0.65 0.74 0.81 0.83 0.87 0.90 0.92 0.91 0.94 0.91 0.90 0.93 0.96 1.01 1.05 1.05
0.57 0.57 0.48 0.43 0.33 0.32 0.26 0.30 0.30 0.27 0.25 0.20 0.23 0.14 0.16 0.18 0.17 0.18 0.17 0.18 0.19 0.21 0.23 0.24 0.25 0.26 0.27 0.33 0.45 0.57 0.75 0.85 0.92 0.95 0.91 0.85 0.77 0.72 0.82 0.86 0.94 0.96 1.01 1.01
0.48 0.47 0.46 0.36 0.32 0.33 0.26 0.30 0.28 0.26 0.24 0.23 0.21 0.14 0.14 0.17 0.14 0.14 0.16 0.18 0.20 0.23 0.25 0.26 0.29 0.33 0.34 0.34 0.32 0.38 0.57 0.74 0.87 0.93 0.94 0.89 0.85 0.85 0.85 0.87 0.88 0.92 0.96 1.01
0.46 0.50 0.45 0.40 0.34 0.32 0.32 0.29 0.26 0.26 0.23 0.18 0.19 0.15 0.12 0.13 0.13 0.14 0.16 0.19 0.21 0.23 0.26 0.29 0.34 0.38 0.38 0.36 0.34 0.32 0.43 0.61 0.79 0.89 0.95 0.96 0.88 0.84 0.81 0.82 0.83 0.87 0.93 0.96
0.43 0.42 0.44 0.42 0.32 0.33 0.29 0.24 0.18 0.17 0.17 0.14 0.19 0.14 0.13 0.15 0.16 0.16 0.16 0.20 0.24 0.26 0.28 0.31 0.34 0.38 0.40 0.37 0.37 0.40 0.46 0.56 0.73 0.82 0.88 0.92 0.89 0.83 0.77 0.80 0.81 0.80 0.78 0.79
0.35 0.32 0.38 0.39 0.33 0.29 0.29 0.24 0.18 0.14 0.13 0.13 0.18 0.13 0.13 0.18 0.20 0.19 0.21 0.25 0.26 0.27 0.30 0.32 0.36 0.41 0.45 0.44 0.46 0.48 0.50 0.56 0.68 0.76 0.83 0.84 0.80 0.76 0.75 0.77 0.76 0.76 0.73 0.69
0.32 0.32 0.41 0.39 0.37 0.32 0.27 0.21 0.24 0.18 0.19 0.12 0.12 0.14 0.18 0.20 0.20 0.21 0.21 0.24 0.24 0.27 0.31 0.32 0.36 0.40 0.44 0.45 0.47 0.50 0.52 0.56 0.61 0.65 0.70 0.72 0.72 0.72 0.70 0.68 0.64 0.60 0.58 0.57
0.35 0.29 0.37 0.37 0.38 0.33 0.28 0.26 0.19 0.18 0.12 0.10 0.13 0.13 0.11 0.14 0.15 0.20 0.21 0.22 0.25 0.29 0.31 0.33 0.37 0.39 0.43 0.46 0.49 0.50 0.51 0.50 0.54 0.57 0.62 0.62 0.59 0.57 0.56 0.55 0.51 0.49 0.47 0.45
0.35 0.31 0.31 0.33 0.30 0.26 0.25 0.22 0.21 0.20 0.17 0.11 0.11 0.12 0.15 0.14 0.16 0.17 0.21 0.24 0.25 0.28 0.31 0.34 0.37 0.40 0.42 0.45 0.46 0.47 0.49 0.48 0.48 0.50 0.50 0.50 0.50 0.49 0.48 0.45 0.44 0.44 0.44 0.43
0.38 0.34 0.27 0.27 0.33 0.34 0.28 0.22 0.21 0.16 0.14 0.16 0.14 0.12 0.17 0.17 0.18 0.18 0.21 0.24 0.29 0.32 0.34 0.36 0.38 0.40 0.40 0.41 0.43 0.44 0.46 0.45 0.46 0.47 0.46 0.44 0.43 0.42 0.42 0.41 0.41 0.42 0.41 0.42
0.36 0.31 0.26 0.26 0.28 0.32 0.25 0.23 0.22 0.20 0.18 0.15 0.13 0.12 0.18 0.18 0.18 0.21 0.21 0.25 0.29 0.33 0.36 0.37 0.38 0.39 0.40 0.41 0.43 0.44 0.45 0.44 0.45 0.43 0.42 0.41 0.40 0.40 0.40 0.40 0.41 0.41 0.39 0.38
0.36 0.31 0.26 0.21 0.21 0.25 0.24 0.23 0.23 0.20 0.16 0.15 0.14 0.13 0.15 0.18 0.18 0.21 0.24 0.26 0.29 0.32 0.34 0.36 0.37 0.39 0.41 0.42 0.43 0.43 0.43 0.44 0.43 0.43 0.42 0.41 0.40 0.41 0.42 0.41 0.39 0.38 0.37 0.34
0.32 0.26 0.27 0.27 0.26 0.24 0.22 0.21 0.20 0.18 0.17 0.14 0.13 0.13 0.15 0.18 0.19 0.22 0.26 0.28 0.29 0.30 0.33 0.35 0.37 0.38 0.41 0.42 0.44 0.45 0.45 0.45 0.45 0.43 0.42 0.42 0.44 0.42 0.40 0.38 0.36 0.36 0.34 0.33
0.34 0.25 0.26 0.25 0.28 0.26 0.23 0.23 0.22 0.20 0.20 0.18 0.17 0.15 0.18 0.21 0.26 0.25 0.25 0.27 0.29 0.31 0.35 0.39 0.41 0.42 0.43 0.45 0.46 0.47 0.46 0.45 0.44 0.43 0.43 0.43 0.42 0.40 0.38 0.36 0.35 0.33 0.32 0.32
0.32 0.28 0.25 0.21 0.27 0.26 0.23 0.23 0.22 0.21 0.22 0.19 0.17 0.17 0.21 0.21 0.23 0.24 0.25 0.27 0.28 0.32 0.37 0.40 0.42 0.43 0.45 0.47 0.49 0.47 0.47 0.46 0.44 0.43 0.43 0.42 0.41 0.39 0.37 0.35 0.32 0.31 0.31 0.32
0.35 0.31 0.29 0.24 0.25 0.18 0.22 0.28 0.27 0.22 0.21 0.23 0.22 0.21 0.22 0.22 0.24 0.27 0.30 0.28 0.31 0.36 0.39 0.43 0.45 0.47 0.49 0.50 0.49 0.49 0.47 0.45 0.43 0.42 0.42 0.41 0.39 0.36 0.35 0.33 0.33 0.33 0.33 0.32
0.49 0.36 0.28 0.24 0.24 0.26 0.26 0.27 0.25 0.24 0.21 0.25 0.22 0.22 0.24 0.29 0.30 0.29 0.34 0.37 0.35 0.36 0.40 0.44 0.46 0.48 0.50 0.49 0.50 0.47 0.45 0.44 0.43 0.43 0.42 0.41 0.38 0.35 0.35 0.34 0.36 0.34 0.32 0.28
0.45 0.45 0.37 0.36 0.29 0.23 0.22 0.31 0.34 0.33 0.22 0.28 0.28 0.29 0.30 0.34 0.29 0.29 0.39 0.41 0.43 0.47 0.45 0.44 0.46 0.49 0.49 0.50 0.49 0.46 0.44 0.44 0.44 0.44 0.42 0.40 0.38 0.37 0.38 0.38 0.35 0.33 0.29 0.24
0.33 0.34 0.30 0.32 0.30 0.28 0.34 0.37 0.41 0.27 0.20 0.30 0.31 0.31 0.31 0.30 0.30 0.31 0.36 0.39 0.43 0.44 0.44 0.46 0.47 0.47 0.49 0.50 0.48 0.45 0.45 0.44 0.46 0.45 0.43 0.40 0.40 0.42 0.40 0.37 0.33 0.27 0.23 0.21
0.29 0.29 0.30 0.32 0.28 0.22 0.36 0.35 0.28 0.30 0.35 0.36 0.35 0.34 0.34 0.36 0.37 0.37 0.39 0.40 0.42 0.43 0.45 0.47 0.47 0.47 0.50 0.49 0.48 0.46 0.46 0.48 0.48 0.45 0.43 0.44 0.45 0.42 0.39 0.33 0.26 0.22 0.20 0.16
0.29 0.32 0.29 0.32 0.27 0.38 0.40 0.37 0.39 0.39 0.36 0.37 0.39 0.41 0.40 0.39 0.40 0.42 0.43 0.46 0.48 0.49 0.51 0.52 0.51 0.52 0.51 0.50 0.49 0.47 0.49 0.49 0.47 0.46 0.46 0.46 0.44 0.39 0.31 0.24 0.20 0.17 0.16 0.15
0.43 0.45 0.35 0.34 0.35 0.37 0.40 0.43 0.43 0.43 0.42 0.44 0.46 0.47 0.47 0.47 0.49 0.49 0.50 0.51 0.51 0.52 0.53 0.54 0.55 0.53 0.51 0.51 0.51 0.50 0.51 0.51 0.49 0.48 0.48 0.44 0.35 0.27 0.23 0.20 0.17 0.15 0.14 0.14
0.45 0.48 0.42 0.39 0.43 0.45 0.47 0.49 0.50 0.50 0.51 0.50 0.51 0.52 0.53 0.54 0.54 0.54 0.53 0.53 0.54 0.54 0.55 0.56 0.55 0.53 0.52 0.53 0.52 0.53 0.53 0.52 0.55 0.47 0.40 0.32 0.26 0.22 0.18 0.16 0.15 0.15 0.16 0.15
0.50 0.47 0.43 0.41 0.50 0.51 0.52 0.52 0.55 0.54 0.52 0.54 0.54 0.53 0.56 0.56 0.55 0.57 0.56 0.56 0.57 0.57 0.58 0.57 0.56 0.54 0.53 0.53 0.53 0.54 0.56 0.53 0.42 0.34 0.29 0.25 0.20 0.17 0.16 0.14 0.14 0.15 0.14 0.14